Content
SEND FEEDBACK

Daily
Averages
Monthly
Summary
United States of America

RAPID CITY, SOUTH DAKOTA


Home > North America > United States > South Dakota
Elevation: 3162 feet     Latitude: 44 03N     Longitude: 103 04W

WEATHER
 
SELECT A DAY
Number of Records: 204,324;   Date Range: 1/1/95 - 11/25/14
 
SHARE

PRINT THIS DATA

[ ← Previous Day ]
WEATHER ALMANAC - NOVEMBER 16, 2013
[ Next Day → ]
[ °C ]   °F
Weather ElementAverageHighLow
Temperature34.8 °F46 °F (1:52 pm)28 °F (1:52 am)
Dewpoint26.9 °F30.9 °F (10:52 am)23 °F (1:52 am)
Humidity73.9 %89 % (9:52 pm)47 % (1:52 pm)
Barometer29.37 in29.43 in (8:52 pm)29.31 in (1:52 pm)
Wind Speed5.4 mph15 mph (5:52 am)
Weather ElementAverage
Visibility10 mi
Wind DirectionSSE (167.4 °)

Weather ElementTotal
Precipitation---
Heating Degree Days28 (Base 65)
Averaged from 23 records on November 16, 2013
WEATHER CONDITIONS BREAKOUT
WIND DIRECTION BREAKOUT
WEATHER BY HOUR - NOVEMBER 16, 2013
[ °C ]   °F
Local TimeTemperatureDewpointHumidityBarometerVisibilityWind DirectionWind SpeedGust SpeedPrecipitationEventsConditions
1:52 AM28.0 °F23.0 °F81 %29.34 in10.0 miNNE (20°)3.5 mphClear
2:52 AM30.9 °F25.0 °F79 %29.33 in10.0 miNorth (360°)12.7 mphClear
3:52 AM28.9 °F24.1 °F82 %29.34 in10.0 miNNW (340°)11.5 mphClear
4:52 AM30.9 °F25.0 °F79 %29.35 in10.0 miNorth (350°)11.5 mphClear
5:52 AM30.9 °F24.1 °F76 %29.34 in10.0 miNorth (350°)15.0 mphClear
6:52 AM28.9 °F23.0 °F78 %29.38 in10.0 miWNW (290°)8.1 mphClear
7:52 AM35.1 °F27.0 °F72 %29.36 in10.0 miNW (310°)5.8 mphClear
8:52 AM39.0 °F28.0 °F65 %29.36 in10.0 miNW (310°)5.8 mphClear
9:52 AM41.0 °F28.9 °F62 %29.36 in10.0 miNNW (340°)9.2 mphClear
10:52 AM43.0 °F30.9 °F62 %29.35 in10.0 miNorth (350°)5.8 mphMostly Cloudy
11:52 AM45.0 °F30.9 °F58 %29.33 in10.0 miCalmClear
12:52 PM45.0 °F30.0 °F56 %29.32 in10.0 miVariable3.5 mphOvercast
1:52 PM46.0 °F27.0 °F47 %29.31 in10.0 miNorth (10°)4.6 mphMostly Cloudy
2:52 PM45.0 °F30.9 °F58 %29.31 in10.0 miEast (80°)6.9 mphOvercast
3:52 PM41.0 °F30.9 °F67 %29.34 in10.0 miENE (70°)6.9 mphScattered Clouds
4:52 PM32.0 °F27.0 °F82 %29.38 in10.0 miNNE (30°)5.8 mphClear
5:52 PM33.1 °F27.0 °F78 %29.40 in10.0 miCalmMostly Cloudy
6:52 PM30.0 °F26.1 °F85 %29.42 in10.0 miCalmPartly Cloudy
7:52 PM30.0 °F26.1 °F85 %29.42 in10.0 miCalmClear
8:52 PM28.9 °F25.0 °F85 %29.43 in10.0 miCalmClear
9:52 PM28.9 °F26.1 °F89 %29.42 in10.0 miWest (280°)3.5 mphClear
10:52 PM28.0 °F25.0 °F88 %29.42 in10.0 miNorth (360°)3.5 mphClear
11:52 PM30.9 °F27.0 °F85 %29.42 in10.0 miCalmScattered Clouds
Hourly data recorded from KRAP, located miles away from Rapid City, South Dakota







STORIES FROM OUR PARTNERS